This is the latest recevied weather packets stored in our database for station/object DF7ER-12. If no packets are shown the sender has not sent any weather packets the latest 10 day(s).
| Time | Temp. | Humidity | Pressure | Rain* | Wind** | Luminosity | Snow |
|---|---|---|---|---|---|---|---|
| 1788618333 | 21.11° C | 78% | 1007 hPa | - | - | - | - |
| 1788618034 | 21.67° C | 80% | 1007 hPa | - | - | - | - |
| 1788617738 | 21.11° C | 80% | 1006.9 hPa | - | - | - | - |
| 1788617433 | 21.67° C | 83% | 1006.9 hPa | - | - | - | - |
| 1788616977 | 21.11° C | 83% | 1006.8 hPa | - | - | - | - |
| 1788616677 | 21.11° C | 84% | 1006.8 hPa | - | - | - | - |
| 1788616377 | 20.56° C | 86% | 1006.6 hPa | - | - | - | - |
| 1788616077 | 20.56° C | 86% | 1006.6 hPa | - | - | - | - |
| 1788615777 | 20.56° C | 87% | 1006.6 hPa | - | - | - | - |
| 1788615477 | 20° C | 88% | 1006.6 hPa | - | - | - | - |
| 1788615177 | 20.56° C | 92% | 1006.7 hPa | - | - | - | - |
| 1788614877 | 20° C | 93% | 1006.5 hPa | - | - | - | - |
| 1788614577 | 20° C | 93% | 1006.5 hPa | - | - | - | - |
| 1788614277 | 21.67° C | 88% | 1006.3 hPa | - | - | - | - |
| 1788613977 | 21.67° C | 90% | 1006.2 hPa | - | - | - | - |
| 1788613677 | 21.67° C | 88% | 1006.1 hPa | - | - | - | - |
| 1788613377 | 21.67° C | 89% | 1006 hPa | - | - | - | - |
| 1788613077 | 20.56° C | 91% | 1006.1 hPa | - | - | - | - |
| 1788612777 | 21.67° C | 92% | 1006.1 hPa | - | - | - | - |
| 1788612477 | 21.11° C | 87% | 1006 hPa | - | - | - | - |
| 1788612177 | 21.11° C | 89% | 1006 hPa | - | - | - | - |
| 1788611877 | 21.11° C | 90% | 1006.2 hPa | - | - | - | - |
| 1788611577 | 22.22° C | 76% | 1005.9 hPa | - | - | - | - |
| 1788611277 | 21.67° C | 76% | 1005.7 hPa | - | - | - | - |
| 1788610977 | 22.22° C | 75% | 1005.5 hPa | - | - | - | - |
* Rain since midnight (hover to see other rain measurements)
** Current wind speed in m/s (hover to see current wind gust speed)